Regional Weather Roundup
Issued by NWS

Home | Current Version | Previous Version | Text Only | Print | Product List | Glossary Off
Versions: 1 2 3 4 5 6 7 8 9 10 11 12 13 14 15 16 17 18 19 20 21 22 23 24 25 26 27

000
ASUS45 KBOU 250507
RWRCO

WEATHER ROUNDUP FOR COLORADO
NATIONAL WEATHER SERVICE DENVER/BOULDER CO
1100 PM MDT SUN SEP 24 2017

NOTE: "FAIR" INDICATES FEW OR NO CLOUDS BELOW 12000 FEET WITH NO
SIGNIFICANT WEATHER AND/OR OBSTRUCTIONS TO VISIBILITY.

COZ001>005-013-030-031-250600-
...NORTHWEST COLORADO...

CITY           SKY/WX    TMP DP  RH WIND       PRES   REMARKS
CRAIG          CLOUDY    42  31  64 CALM      30.10S
HAYDEN         FAIR      39  29  67 SW5       30.12R
MEEKER         FAIR      35  31  85 NE3       30.10R
RABBIT EARS PA FAIR      28  27  93 W9        30.17S WCI  20
STEAMBOAT SPGS FAIR      36  31  83 E5        30.10S
WALDEN         MOCLDY    34  30  86 SE9       30.13S WCI  26
$$

COZ006>008-011-250600-
...WEST CENTRAL VALLEYS...

CITY           SKY/WX    TMP DP  RH WIND       PRES   REMARKS
GRAND JUNCTION FAIR      49  31  49 SW5       30.04R
MONTROSE       FAIR      43  24  47 S10       30.09R
EAGLE          FAIR      41  24  51 SE3       30.11R
RIFLE          FAIR      45  30  55 E5        30.07R
DELTA          NOT AVBL
NUCLA          FAIR      43  21  42 NE6       30.11R
$$

COZ017>023-064>068-250600-
...SOUTHWEST COLORADO...

CITY           SKY/WX    TMP DP  RH WIND       PRES   REMARKS
DURANGO        FAIR      38  24  57 CALM      30.06R
CORTEZ         FAIR      35  29  78 NE7       30.06S WCI  29
PAGOSA SPRINGS CLOUDY    40  26  57 CALM      30.10S
TELLURIDE      FAIR      34  22  61 SE5       30.17S WCI  30
WOLF CREEK PAS CLOUDY    28  18  64 S9        30.27S WCI  20
$$

COZ009-010-012-014-032>034-037-058>063-250600-
...CENTRAL COLORADO...

CITY           SKY/WX    TMP DP  RH WIND       PRES   REMARKS
ASPEN          FAIR      32  26  78 SW5       30.11R WCI  27
BUENA VISTA    FAIR      44  24  45 SE6       30.10R
COPPER MTN     FAIR      28  21  74 MISG      30.22S
BERTHOUD PASS  HAZE      21  12  68 NW9       30.22S VSB<1/4 WCI  11
COTTONWOOD PAS FAIR      41  25  52 W6        30.16S
GUNNISON       FAIR      35  20  54 CALM      30.12R
KREMMLING      CLOUDY    45  25  45 N6        30.12R
LEADVILLE      MOCLDY    30  21  69 N6        30.15R WCI  24
MONARCH PASS   FAIR      27  19  74 SW13      30.32S WCI  16
SALIDA         FAIR      46  24  42 SW10      30.15S
SUNLIGHT       FAIR      27  19  74 CALM      30.22S
WILKERSON PASS FAIR      32  23  69 S8        30.23R WCI  25
$$

COZ069>075-250600-
...SAN LUIS VALLEY/SANGRE DE CRISTO MOUNTAINS...

CITY           SKY/WX    TMP DP  RH WIND       PRES   REMARKS
ALAMOSA        FAIR      40  27  59 CALM      30.07R
DEL NORTE      FAIR      38  23  56 W12       30.09F
LA VETA PASS   FAIR      39  21  48 S18       30.27S
SAGUACHE       CLOUDY    43  23  45 NW15      30.09S
$$

COZ035-036-038>040-250600-
...NORTHERN COLORADO FRONT RANGE...

CITY           SKY/WX    TMP DP  RH WIND       PRES   REMARKS
DENVER INTL AP CLOUDY    47  45  93 N7        30.05S FOG
DMNS CITY PARK   N/A     47  47 100 NE9G15    30.06S
AURORA         DRIZZLE   46  46 100 N8        30.07R
FRONT RANGE AP DRIZZLE   46  46 100 N7        30.07R
ERIE MUNI ARPT CLOUDY    47  46  97 N6        30.12R
BOULDER MUN AP CLOUDY    45  45 100 NE5       30.06S
CENTENNIAL     DRIZZLE   46  46 100 N12       30.06R FOG
BROOMFIELD     CLOUDY    46  46 100 N10       30.07S
FORT COLLINS   CLOUDY    45  42  89 N13       30.07S
LONGMONT       CLOUDY    49  46  92 N3        30.09R
$$

COZ041-046-047-076>085-087-088-250600-
...PIKES PEAK/PALMER DIVIDE AND SOUTHERN FOOTHILLS...

CITY           SKY/WX    TMP DP  RH WIND       PRES   REMARKS
COLO. SPRINGS  CLOUDY    50  46  86 CALM      30.06R
A. F. ACADEMY  CLOUDY    49  46  89 NW9       30.05R
SCHRIEVER AFB  CLOUDY    48  46  93 MISG      30.05R
CHEYENNE MTN   FAIR      44  43  99 NW8       30.01R
ELLICOTT       CLOUDY   N/A N/A N/A E6        30.03R
FALCON         FAIR      45  44  97 CALM      30.07R
FORT CARSON    FOG       48  48 100 CALM      30.02S VSB 1/2
LIMON            N/A    N/A N/A N/A MISG        N/A
MONUMENT HILL  FOG       43  43 100 NW12      30.09S VSB 1/4
CANON CITY     CLOUDY    54  52  94 CALM      30.02R
WALSENBURG     CLOUDY    54  52  94 CALM      30.02S
TRINIDAD       CLOUDY    53  52  96 N5        30.01S FOG
$$

COZ042>045-048>051-090-091-250600-
...NORTHEAST COLORADO...

CITY           SKY/WX    TMP DP  RH WIND       PRES   REMARKS
GREELEY ARPT   CLOUDY    48  47  96 N6        30.08R
AKRON          CLOUDY    48  46  93 E6        30.03R FOG
BURLINGTON     LGT RAIN  52  51  97 NE10      30.00R
WRAY           CLOUDY   N/A N/A N/A NW14G23   30.02R FOG
YUMA           DRIZZLE   46  46 100 N5        30.02R
STERLING       LGT RAIN  50  48  93 NE7       30.03R
HOLYOKE        TSTM      54  52  94 NW7       30.04R
FORT MORGAN    DRIZZLE   48  46  93 NE3       30.06R
$$

COZ086-089-092>099-250600-
...SOUTHEAST COLORADO...

CITY           SKY/WX    TMP DP  RH WIND       PRES   REMARKS
PUEBLO         CLOUDY    54  49  83 CALM      29.99S
LA JUNTA       CLOUDY    54  53  97 N7        29.97R
LAMAR          CLOUDY    56  53  90 N10       29.92S
SPRINGFIELD      N/A     56  56 100 NW10      29.93R
$$




USA.gov is the U.S. government's official web portal to all federal, state and local government web resources and services.